Showing default

ICEYE-X25, 56963

Orbit data source: Space-Track

ICEYE-X25, 56963 is a payload satellite owned by ICEYE (FI) in SSO that was launched on Mon, 12 Jun 2023 UTC via an FALCON 9 launch vehicle from the Air Force Western Test Range (AFWTR). Payload-class satellites include a variety of spacecraft equipped with specific instruments for various scientific and technological missions. These include communications satellites like Starlink; space stations such as the ISS; scientific satellites like the Hubble; Earth observation satellites from companies like Planet Labs, Umbra, and HawkEye 360; GPS; miniature CubeSats for education and research; and military/defense satellites.

Loading next visibility...
Identifier
56963, 2023-084AH
Orbit
SSO
Last TLE update
12 hours ago
Origin
Manufacturer
ICEYE
Mission
Operational Commercial Radar Imaging
Bus & Motor
ICEYE, Unknown motor
Mass
90 kg wet, 89 kg dry
Launch date (UTC)
2023-06-12 (2 years ago)
Launch vehicle
FALCON 9
Launch site
Air Force Western Test Range (AFWTR)
Object type
Payload
Rocket body
Debris
Shape & HBR
Box + 1 Pan, 3.25 m
Radar Cross Section
0.825 m², Medium (>0.1 m² and < 1m²)

Expand to show TLE details & history

TLE from 12 hours ago
0 ICEYE-X25
1 56963U 23084AH  25188.80624939  .00015146  00000-0  47301-3 0  9996
2 56963  97.5647 315.0785 0009294 102.1554 258.0729 15.33246428114793
Epoch: 2025-07-07T19:20Z
TLE epoch observation values (Epoch: 2025-07-07T19:20:59.947Z)
Latitude
-0.00006°
Longitude
98.81842°
Altitude
470.558 km
Speed
7.63 km/s
True Right ascension
21h 00m 18s
True Declination
0° 00' 00"
Sunlit
Object was in full shadow at epoch
Visualization orbit readout
Latitude
-56.15039°
Longitude
-92.02692°
Altitude
492.498 km
Speed
7.615 km/s
Apparent Right ascension
07h 48m 24s
Apparent Declination
-48° 19' 47"
Sunlit
Object is in daylight
Visualization observer readout
Local Sidereal Time
19:26:05
Azimuth
203.542° SW
Elevation
-80.688°
Doppler factor
1
Orbital elements
Apogee altitude
469.447 km
Perigee altitude
456.731 km
Semi-major axis
6,841.226 km
Eccentricity
0.00093
Inclination
97.5647°
RAAN
315.0785°
Arg. of periapsis
102.1554°
True anomaly
Unknown
Mean anomaly
258.0729°
Eccentric anomaly
Unknown
Mean motion
3.83568 °/min
Orbital period
93.86 mins
BSTAR
0.00047301
Loading maneuver chart data...
Loading SW <> Apogee altitude chart data...
Loading historical data...
Loading historical data...
Loading historical data...
Loading historical data...
Loading historical data...
Loading historical data...
Loading historical data...

ICEYE-X25 Visibility forecast

Observer location: undefined°, undefined°

Span
Click to sort rows by Start time (UTC) header in descending order
Start Az.
Max El. time (UTC)
Max El. Az.
Max El.
End time (UTC)
End Az.
6 mins2025-07-08 08:00:33.041Z139.582° SSE2025-07-08 08:03:33.041Z78.247° E29.826°2025-07-08 08:06:33.041Z8.018° NNE
4 mins2025-07-08 20:59:33.041Z40.715° NE2025-07-08 21:01:33.041Z116.644° SE33.544°2025-07-08 21:03:33.041Z165.775° S
|